Weather History for New Iberia, LA

Change the Weather History Date:

Tuesday, March 18, 2014

  Actual Average Record
Temperature  
Mean Temperature 49 °F 62 °F  
Max Temperature 64 °F 73 °F 85 °F (1982)
Min Temperature 34 °F 52 °F 32 °F (1960)
Degree Days  
Heating Degree Days 16 4  
Month to date heating degree days 160 101  
Since 1 July heating degree days 1684 1317  
Cooling Degree Days 0 2  
Month to date cooling degree days 12 21  
Year to date cooling degree days 30 52  
Moisture  
Dew Point 42 °F    
Average Humidity 73    
Maximum Humidity 93    
Minimum Humidity 52    
Precipitation  
Precipitation 0.00 in 0.09 in 4.55 in (1957)
Month to date precipitation 0.93 2.28  
Year to date precipitation 9.27 11.69  
Sea Level Pressure  
Sea Level Pressure 29.93 in    
Wind  
Wind Speed 7 mph (SSE)    
Max Wind Speed 18 mph    
Max Gust Speed 24 mph    
Visibility 9 miles    
Events      
T = Trace of Precipitation, MM = Missing Value Source: NWS Daily Summary

Daily Weather History Graph

Daily Weather History Graph

Search for Another Location

Airport:

Trip Planner

Search our weather history database for the weather conditions in past years. The results will help you decide how hot, cold, wet, or windy it might be!

Date:

Astronomy

Mar. 18, 2014 Rise Set
Actual Time 7:13 AM CDT 7:17 PM CDT
Civil Twilight 6:49 AM CDT 7:41 PM CDT
Nautical Twilight 6:22 AM CDT 8:09 PM CDT
Astronomical Twilight 5:54 AM CDT 8:37 PM CDT
Moon 9:23 PM CDT (3/18) 8:12 AM CDT (3/18)
Length of Visible Light 12h 51m
Length of Day
12h 04m
Waning Gibbous, 96% of the Moon is Illuminated
Mar 18
Waning Gibbous
Mar 23
Last Quarter
Mar 30
New
Apr 7
First Quarter
Apr 15
Full

Hourly Weather History & Observations

Time (CDT) Temp. Windchill Dew Point Humidity Pressure Visibility Wind Dir Wind Speed Gust Speed Precip Events Conditions
12:53 AM 39.9 °F - 36.0 °F 86% 29.89 in 10.0 mi Calm Calm - N/A   Clear
1:53 AM 37.0 °F 34.5 °F 34.0 °F 89% 29.88 in 10.0 mi South 3.5 mph - N/A   Clear
2:53 AM 37.0 °F 33.3 °F 35.1 °F 93% 29.91 in 7.0 mi West 4.6 mph - N/A   Clear
3:53 AM 37.9 °F - 36.0 °F 93% 29.91 in 10.0 mi Calm Calm - N/A   Clear
4:53 AM 37.0 °F - 35.1 °F 93% 29.92 in 5.0 mi Calm Calm - N/A   Clear
5:06 AM 36.0 °F - 36.0 °F 100% 29.92 in 1.8 mi Calm Calm - N/A   Clear
5:30 AM 37.9 °F - 36.0 °F 93% 29.92 in 3.0 mi Calm Calm - N/A   Clear
5:53 AM 36.0 °F 32.1 °F 34.0 °F 93% 29.92 in 9.0 mi ENE 4.6 mph - N/A   Clear
6:53 AM 37.9 °F 35.5 °F 35.1 °F 89% 29.92 in 10.0 mi ENE 3.5 mph - 0.00 in   Clear
7:53 AM 37.0 °F 34.5 °F 35.1 °F 93% 29.93 in 5.0 mi SE 3.5 mph - 0.00 in   Clear
8:53 AM 46.0 °F 43.1 °F 39.9 °F 79% 29.93 in 10.0 mi ESE 5.8 mph - N/A   Clear
9:53 AM 51.1 °F - 42.1 °F 71% 29.94 in 10.0 mi SE 6.9 mph - N/A   Clear
10:53 AM 55.0 °F - 43.0 °F 64% 29.95 in 10.0 mi Variable 4.6 mph - 0.00 in   Clear
11:53 AM 59.0 °F - 44.1 °F 58% 29.94 in 10.0 mi South 6.9 mph - N/A   Clear
12:53 PM 62.1 °F - 45.0 °F 53% 29.94 in 10.0 mi South 10.4 mph - N/A   Clear
1:53 PM 63.0 °F - 46.0 °F 54% 29.93 in 10.0 mi North - - N/A   Clear
2:53 PM 63.0 °F - 46.0 °F 54% 29.92 in 10.0 mi South 18.4 mph 24.2 mph N/A   Clear
3:53 PM 63.0 °F - 48.9 °F 60% 29.92 in 10.0 mi South 18.4 mph 23.0 mph N/A   Partly Cloudy
4:53 PM 62.1 °F - 50.0 °F 65% 29.91 in 10.0 mi North - - N/A   Clear
5:53 PM 60.1 °F - 50.0 °F 69% 29.91 in 10.0 mi South 10.4 mph - N/A   Clear
6:53 PM 57.0 °F - 48.9 °F 74% 29.93 in 10.0 mi North - - N/A   Partly Cloudy
7:53 PM 54.0 °F - 48.0 °F 80% 29.94 in 10.0 mi SSE 10.4 mph - N/A   Clear
8:53 PM 52.0 °F - 46.9 °F 83% 29.95 in 10.0 mi SE 10.4 mph - N/A   Clear
9:53 PM 53.1 °F - 48.0 °F 83% 29.93 in 10.0 mi SSE 12.7 mph - N/A   Clear
10:53 PM 52.0 °F - 48.0 °F 86% 29.98 in 10.0 mi SSE 8.1 mph - N/A   Clear
11:53 PM 48.9 °F - 46.0 °F 90% 29.99 in 9.0 mi SE 6.9 mph - N/A   Clear